Location: Bazugues
(43.4465°N, 0.3432°E)
Time: 07:12:38
(UTC+00:00)

SL-16 R/B - Pass Details

Date: 12 January 2026
Orbit: 984 x 1007 km, 99.8° (Epoch: 10 February)

Event Time Altitude Azimuth Distance (km) Brightness Sun altitude
Rises 17:16:44 0° 11° (N) 3,705 5.2 -6.1°
Reaches altitude 10° 17:19:14 10° 8° (N) 2,751 4.6 -6.5°
Maximum altitude 17:25:15 58° 291° (WNW) 1,144 3.2 -7.5°
Drops below altitude 10° 17:31:14 10° 214° (SW) 2,735 5.8 -8.5°
Sets 17:33:44 0° 211° (SSW) 3,681 6.4 -8.9°
